Fort Smith Regional Airport
KFSM : now visible

Airfield :











YOU CAN JOIN US ON...

 
LOGIN :

Register | Disclaimer

   EN    FR    IT 

 









Legend :    VFR   Marginal VFR   IFR   Intensive IFR   Very Intensive IFR
Visi :
Ceiling :
>= 8 km
>= 3000ft
5 to 8 km
1000 to 3000 ft
1500m to 5 km
500 to 1000 ft
800 to 1500m
200 to 500 ft
< 800m
< 200 ft
Symbols :   Thunderstorms  Fog  Heavy snow  Heavy precipitations  Wind > 20 kt






- Airport Elevation : 469 ft
- IATA code : FSM


KFSM - Fort Smith Regional

CURRENT METAR :
  • 062053Z 19007KT 10SM OVC044 24/16 A2996 RMK AO2 SLP142 T02390156 58022

EXPIRED METARs :
  • 061953Z 16005KT 10SM FEW035 BKN049 OVC075 24/16 A2998 RMK AO2 SLP148 T02390161
  • 061853Z 17006KT 10SM BKN032 BKN041 OVC075 23/16 A3001 RMK AO2 SLP159 T02330161

TAF KFSM
Valid from the 06 at 18:00 until the 07 at 18:00 UTC


061720Z 0618/0718 12005KT P6SM BKN060
FM071000 00000KT P6SM BKN025
TEMPO 0712/0716 BKN015
FM071600 VRB04KT P6SM BKN020



MET'MAP, your aeronautical weather chart ! - Copyright ORBIFLY December 2007 - Disclaimer

ORBIFLY MET'MAP TEAM :

Programming & Development : Alexandra Zaïnal
Concept & original design : Baudouin d'Aumeries
Assistance for programming : Marc-Olivier Méhu
Technical & hardware support : Manuel Goepfert

Contact : metmap@orbifly.com




SOURCES & CREDITS :

   NOAA       Earth
Advisory